KB2UHF-8 Weather Reports


Display with metric or nautical units.
time (UTC)temp
F
wind
direction
speed
MPH
gust
MPH
rain 1hr
in
rain 24hr
in
rain mn
in
humidity
%
barometer
mb
20260902102556 68 45 2.0 5.0 0.00 0.00 0.00 92 1014.3
20260902101516 68 68 3.0 7.0 0.00 0.00 0.00 92 1014.1
20260902100516 68 90 3.0 8.0 0.00 0.00 0.00 91 1014.3
20260902095536 69 90 3.0 6.0 0.00 0.00 0.00 90 1014.3
20260902094536 69 45 2.0 6.0 0.00 0.00 0.00 90 1014.6
20260902093516 69 68 2.0 4.0 0.00 0.00 0.00 89 1014.6
20260902092516 69 68 1.0 3.0 0.00 0.00 0.00 89 1014.6
20260902091516 69 0.0 3.0 0.00 0.00 0.00 88 1014.7
20260902090516 70 338 1.0 4.0 0.00 0.00 0.00 88 1015.0
20260902085516 70 315 2.0 8.0 0.00 0.00 0.00 87 1015.4
20260902084536 70 315 4.0 11.0 0.00 0.00 0.00 87 1015.5
20260902083516 71 315 10.0 19.0 0.00 0.00 0.00 86 1016.0
20260902082516 72 293 6.0 13.0 0.00 0.00 0.00 87 1016.1
20260902081516 72 113 6.0 25.0 0.00 0.00 0.00 86 1014.3
20260902080516 73 135 2.0 4.0 0.00 0.00 0.00 84 1013.8
20260902075516 73 113 4.0 6.0 0.00 0.00 0.00 83 1013.8
20260902074516 73 113 4.0 7.0 0.00 0.00 0.00 83 1013.8
20260902073516 73 90 4.0 7.0 0.00 0.00 0.00 83 1013.8
20260902072516 73 113 2.0 6.0 0.00 0.00 0.00 86 1014.0
20260902071516 73 113 3.0 6.0 0.00 0.00 0.00 87 1013.9
20260902070516 73 90 4.0 6.0 0.00 0.00 0.00 89 1014.0
20260902065516 73 113 3.0 6.0 0.00 0.00 0.00 89 1013.9
20260902064536 73 90 3.0 4.0 0.00 0.00 0.00 90 1014.0
20260902063516 73 90 1.0 5.0 0.00 0.00 0.00 90 1014.0
20260902062516 73 90 3.0 6.0 0.00 0.00 0.00 91 1013.8
20260902061515 73 68 3.0 5.0 0.00 0.00 0.00 91 1014.1
20260902060536 73 45 2.0 4.0 0.00 0.00 0.00 91 1014.3
20260902055515 73 68 4.0 8.0 0.00 0.00 0.00 94 1014.5
20260902054516 73 315 1.0 3.0 0.00 0.00 0.00 96 1014.8
20260902053516 73 315 2.0 5.0 0.00 0.00 0.00 96 1014.7
20260902052516 73 68 1.0 3.0 0.00 0.00 0.00 96 1014.3
20260902051516 73 45 1.0 4.0 0.00 0.00 0.00 96 1014.4
20260902050516 74 90 2.0 4.0 0.00 0.00 0.00 96 1014.3
20260902045516 74 68 2.0 3.0 0.00 0.00 0.00 95 1014.4
20260902044516 74 90 3.0 5.0 0.00 0.00 0.00 95 1014.3
20260902043517 74 0.0 3.0 0.00 0.00 0.00 94 1014.1
20260902042516 75 0.0 0.0 0.00 0.00 0.00 93 1014.2
20260902041516 75 0.0 0.0 0.00 0.00 0.00 93 1014.0
20260902040516 75 0.0 0.0 0.00 0.00 0.00 93 1013.9
20260902035516 75 0.0 2.0 0.00 0.00 0.00 93 1014.1
20260902034516 75 0.0 2.0 0.00 0.00 0.00 92 1014.3
20260902033516 76 0.0 3.0 0.00 0.00 0.00 92 1014.3
20260902032516 76 0.0 0.0 0.00 0.00 0.00 91 1014.3
20260902031516 76 90 2.0 3.0 0.00 0.00 0.00 90 1014.2
20260902030516 76 0.0 0.0 0.00 0.00 0.00 90 1014.3
20260902025518 76 0.0 0.0 0.00 0.00 0.00 90 1014.4
20260902024516 76 0.0 0.0 0.00 0.00 0.00 89 1014.5
20260902023516 76 0.0 0.0 0.00 0.00 0.00 89 1014.5
20260902022516 76 0.0 0.0 0.00 0.00 0.00 89 1014.5
20260902021516 77 0.0 0.0 0.00 0.00 0.00 89 1014.4
20260902020538 77 0.0 0.0 0.00 0.00 0.00 89 1014.3
20260902015516 77 0.0 1.0 0.00 0.00 0.00 89 1014.3
20260902014516 77 338 2.0 4.0 0.00 0.00 0.00 89 1014.1
20260902013516 77 0.0 0.0 0.00 0.00 0.00 88 1014.1
20260902012516 78 338 1.0 4.0 0.00 0.00 0.00 88 1013.8
20260902011516 78 338 3.0 6.0 0.00 0.00 0.00 88 1013.9
20260902010516 78 315 1.0 2.0 0.00 0.00 0.00 89 1013.6
20260902005536 78 225 1.0 6.0 0.00 0.00 0.00 89 1013.1
20260902004516 78 180 3.0 6.0 0.00 0.00 0.00 88 1012.8
20260902003516 78 23 2.0 5.0 0.00 0.00 0.00 88 1013.0
20260902002516 78 158 5.0 9.0 0.00 0.00 0.00 88 1012.7
20260902001536 79 158 3.0 4.0 0.00 0.00 0.00 85 1013.6
20260902000516 79 0.0 0.0 0.00 0.00 0.00 84 1014.1
20260901235536 80 158 1.0 3.0 0.00 0.00 0.00 84 1014.1
20260901234516 80 0.0 3.0 0.00 0.00 0.00 84 1014.5
20260901233516 80 0.0 2.0 0.00 0.00 0.00 83 1014.6
20260901232516 81 270 1.0 2.0 0.00 0.00 0.00 80 1014.6
20260901231516 83 248 1.0 3.0 0.00 0.00 0.00 78 1014.2
20260901230516 83 0.0 2.0 0.00 0.00 0.00 76 1013.9
20260901225536 84 0.0 1.0 0.00 0.00 0.00 76 1014.2
20260901224516 84 270 2.0 4.0 0.00 0.00 0.00 74 1014.1
20260901223516 85 225 1.0 3.0 0.00 0.00 0.00 74 1014.1
20260901222516 86 248 1.0 4.0 0.00 0.00 0.00 71 1014.0
20260901221516 85 248 1.0 4.0 0.00 0.00 0.00 72 1014.1
20260901220516 86 203 2.0 4.0 0.00 0.00 0.00 68 1014.2
20260901215516 86 203 1.0 4.0 0.00 0.00 0.00 71 1014.1
20260901214516 85 0.0 2.0 0.00 0.00 0.00 77 1014.2
20260901213516 85 225 1.0 5.0 0.00 0.00 0.00 77 1014.0
20260901212516 85 225 3.0 5.0 0.00 0.00 0.00 76 1014.1
20260901211516 84 225 2.0 5.0 0.00 0.00 0.00 76 1014.2
20260901210516 83 0.0 2.0 0.00 0.00 0.00 78 1014.1
20260901205516 84 0.0 0.0 0.00 0.00 0.00 76 1013.6
20260901204516 84 0.0 2.0 0.00 0.00 0.00 74 1013.7
20260901203516 84 203 2.0 9.0 0.00 0.00 0.00 72 1014.5
20260901202536 85 248 4.0 8.0 0.00 0.00 0.00 73 1015.1
20260901201515 87 248 3.0 8.0 0.00 0.00 0.00 70 1015.1
20260901200556 86 248 4.0 8.0 0.00 0.00 0.00 72 1014.9
20260901195516 87 225 3.0 8.0 0.00 0.00 0.00 72 1014.9
20260901194515 88 225 3.0 8.0 0.00 0.00 0.00 70 1015.0
20260901193515 89 225 3.0 10.0 0.00 0.00 0.00 69 1015.1
20260901192515 89 225 3.0 7.0 0.00 0.00 0.00 69 1015.1
20260901191516 89 225 3.0 7.0 0.00 0.00 0.00 71 1015.1
20260901190516 89 225 1.0 5.0 0.00 0.00 0.00 67 1015.0
20260901185515 88 225 2.0 6.0 0.00 0.00 0.00 70 1015.1
20260901184516 88 225 1.0 3.0 0.00 0.00 0.00 69 1015.2
20260901183516 87 293 2.0 9.0 0.00 0.00 0.00 71 1015.1
20260901182515 87 248 2.0 5.0 0.00 0.00 0.00 68 1015.2
20260901181516 87 225 3.0 6.0 0.00 0.00 0.00 70 1015.1
20260901180515 86 225 2.0 4.0 0.00 0.00 0.00 72 1015.0
20260901175516 86 203 3.0 8.0 0.00 0.00 0.00 74 1015.1
20260901174515 85 248 2.0 7.0 0.00 0.00 0.00 80 1015.4
20260901173515 85 270 3.0 8.0 0.00 0.00 0.00 78 1015.3
20260901172516 85 225 2.0 6.0 0.00 0.00 0.00 75 1015.3
20260901171515 85 203 1.0 4.0 0.00 0.00 0.00 81 1015.3
20260901170515 84 248 1.0 6.0 0.00 0.00 0.00 80 1015.3
20260901165536 85 0.0 3.0 0.00 0.00 0.00 79 1015.5
20260901164515 84 158 1.0 4.0 0.00 0.00 0.00 80 1015.5
20260901163515 84 248 2.0 4.0 0.00 0.00 0.00 80 1015.4
20260901162516 83 0.0 2.0 0.00 0.00 0.00 81 1015.4
20260901161515 82 180 1.0 3.0 0.00 0.00 0.00 84 1015.6
20260901160535 81 225 2.0 5.0 0.00 0.00 0.00 86 1015.6
20260901155515 80 293 2.0 4.0 0.00 0.00 0.00 86 1015.5
20260901154515 79 248 1.0 4.0 0.00 0.00 0.00 92 1015.6
20260901153515 77 270 1.0 2.0 0.00 0.00 0.00 96 1015.5
20260901152515 76 293 1.0 3.0 0.00 0.00 0.00 98 1015.5
20260901151515 75 0.0 1.0 0.00 0.00 0.00 98 1015.2
20260901150515 74 0.0 0.0 0.00 0.00 0.00 98 1015.2
20260901145537 74 203 1.0 2.0 0.00 0.00 0.00 98 1015.2
20260901144515 74 0.0 0.0 0.00 0.00 0.00 99 1015.2
20260901143515 74 0.0 3.0 0.00 0.00 0.00 98 1015.1
20260901142515 74 0.0 0.0 0.00 0.00 0.00 98 1015.1
20260901141515 74 0.0 0.0 0.00 0.00 0.00 99 1015.2
20260901140535 73 0.0 0.0 0.00 0.00 0.00 99 1015.1
20260901135535 73 0.0 0.0 0.00 0.00 0.00 99 1015.2
20260901134555 72 0.0 0.0 0.00 0.00 0.00 99 1015.3
20260901133517 71 0.0 3.0 0.00 0.00 0.00 98 1015.5
20260901132517 71 248 1.0 3.0 0.00 0.00 0.00 98 1015.7
20260901131517 71 225 1.0 4.0 0.00 0.00 0.00 98 1015.6
20260901130537 70 225 1.0 3.0 0.00 0.00 0.00 98 1015.7
20260901125517 70 0.0 0.0 0.00 0.00 0.00 98 1015.5
20260901124517 70 0.0 0.0 0.00 0.00 0.00 98 1015.3
20260901123517 70 0.0 0.0 0.00 0.00 0.00 98 1015.1
20260901122517 70 0.0 0.0 0.00 0.00 0.00 98 1015.2
20260901121517 69 0.0 0.0 0.00 0.00 0.00 98 1014.9
20260901120517 69 0.0 0.0 0.00 0.00 0.00 98 1014.8
20260901115517 69 0.0 0.0 0.00 0.00 0.00 98 1014.7
20260901114537 69 0.0 0.0 0.00 0.00 0.00 98 1014.6
20260901113517 69 0.0 0.0 0.00 0.00 0.00 98 1014.6
20260901112537 69 0.0 0.0 0.00 0.00 0.00 97 1014.6
20260901111517 70 0.0 0.0 0.00 0.00 0.00 98 1014.6
20260901110517 70 0.0 0.0 0.00 0.00 0.00 98 1014.5
20260901105538 69 0.0 0.0 0.00 0.00 0.00 98 1014.3
20260901104517 69 0.0 0.0 0.00 0.00 0.00 98 1014.2
20260901103517 69 0.0 0.0 0.00 0.00 0.00 98 1014.4